User: anonymous   Login
Location: Unspecified
(52.4361°N, 0.0000°E)
Time: 08:42:13
(UTC+00:00)
Language:

EO-88 - Orbit

View from above orbital plane
View from above orbital plane
View from above satellite
View from above satellite

Ground track
Ground track

The orbit data is extracted from the following two-line orbital elements,

1 42017U 17008BX  19199.14850345  .00000878  00000-0  37390-4 0  9998
2 42017  97.4017 265.9378 0007837  71.6917 288.5173 15.25578560134411
Epoch (UTC): 18 July 2019 03:33:50
Eccentricity: 0.0007837
inclination: 97.4017°
perigee height: 483 km
apogee height: 494 km
right ascension of ascending node: 265.9378°
argument of perigee: 71.6917°
revolutions per day: 15.25578560
mean anomaly at epoch: 288.5173°
orbit number at epoch: 13441

The dashed part of the orbit path shows where the satellite is in the earth's shadow,  

DLR